Regional Weather Roundup
Issued by NWS

Home | Current Version | Previous Version | Graphics & Text | Print | Product List | Glossary On
Versions: 1 2 3 4 5 6 7 8 9 10 11 12 13 14 15 16 17 18 19 20 21 22 23 24 25 26 27 28 29 30 31 32 33 34 35 36 37 38 39 40 41 42 43 44 45 46 47 48 49 50
000
ASUS43 KLOT 241710
RWRIL

ILLINOIS REGIONAL WEATHER ROUNDUP
NATIONAL WEATHER SERVICE CHICAGO/ROMEOVILLE IL
1200 PM CDT THU JUL 24 2014

NOTE: "FAIR" INDICATES FEW OR NO CLOUDS BELOW 12,000 FEET WITH NO
SIGNIFICANT WEATHER AND/OR OBSTRUCTIONS TO VISIBILITY.

* THESE STATIONS ARE NOT UNDER NWS QUALITY CONTROL. THEY ALSO MAY NOT
  REPORT WEATHER SUCH AS PRECIPITATION OR FOG.

ILZ001-002-007-009-015-016-024-241800-
NORTHWEST ILLINOIS

CITY           SKY/WX    TMP DP  RH WIND       PRES   REMARKS
MOLINE         SUNNY     75  53  46 SE8       30.17F
STERLING*      SUNNY     73  54  49 SE3       30.18F
SAVANNA*       SUNNY     76  52  42 E6        30.17F
$$

ILZ003-004-008-010-011-017-018-241800-
NORTH CENTRAL ILLINOIS

CITY           SKY/WX    TMP DP  RH WIND       PRES   REMARKS
ROCKFORD       MOSUNNY   75  49  39 E8        30.19F
FREEPORT*      SUNNY     71  53  52 SE3       30.21F
ROCHELLE*      SUNNY     73  48  41 NE8       30.19S
DE KALB*       SUNNY     71  50  48 E8        30.19S
PERU*          SUNNY     73  54  51 E8        30.18S
$$

ILZ005-006-012>014-019>023-241800-
NORTHEAST ILLINOIS

CITY           SKY/WX    TMP DP  RH WIND       PRES   REMARKS
CHICAGO-OHARE  MOSUNNY   71  46  40 NE13      30.17F
CHICAGO-MIDWAY MOSUNNY   73  52  47 NE10      30.17S
AURORA         MOSUNNY   74  52  46 NE10      30.17F
LANSING*       PTSUNNY   71  55  58 N10       30.17S
JOLIET*        MOSUNNY   72  49  44 NE8       30.17F
WAUKEGAN       SUNNY     67  50  54 VRB5      30.18S
DUPAGE AIRPORT SUNNY     73  50  44 NE9       30.17S
KANKAKEE*      MOSUNNY   73  57  57 NE7       30.16S
WHEELING       SUNNY     71  50  47 NE8       30.19F
MORRIS*        SUNNY     74  55  51 E7        30.16F
ROMEOVILLE*    MOSUNNY   72  49  43 NE9       30.16F
NORTHERLY ISL    N/A     66  57  72 N10         N/A
$$

LMZ740>746-241800-
SOUTHERN LAKE MICHIGAN

STATION/POSITION SKY/WX   TEMP    WIND        PRES    VSBY  WAVE
                          AIR SEA DIR/SP/G                  HT/PER
                          (F)     (DEG/KT/KT) (MB)    (MI)  (FT/S)
SOUTHERN BUOY              59 61  340/  6/  8 1022.1S         1/ 3
WAUKEGAN HARBOR            62      60/  7/  8   N/A
HARRISON CRIB              62      10/ 10/ 11   N/A
BURNHAM HARBOR             66      30/  8/ 10   N/A
CALUMET HARBOR             65     350/  9/ 12 1020.7F
MICHIGAN CITY              67     350/ 11/ 13   N/A
MICHIGAN CITY 6N           65 69   10/ 10/ 14   N/A           2/ 2
ST. JOSEPH                 57 51  320/  8/ 10   N/A           2/ 2
$$

ILZ025>027-034>036-040-047-049-050-058-095>099-241800-
WEST-CENTRAL ILLINOIS

CITY           SKY/WX    TMP DP  RH WIND       PRES   REMARKS
QUINCY         SUNNY     75  52  44 E7        30.18S
GALESBURG*     SUNNY     77  55  46 NE7       30.17F
MACOMB*        SUNNY     73  54  51 E3        30.20S
JACKSONVILLE*  SUNNY     75  56  52 N7        30.17F
PITTSFIELD*    SUNNY     75  53  46 NE8       30.18S
$$

ILZ028>032-037-038-041>044-048-051>054-059>061-241800-
CENTRAL ILLINOIS

CITY           SKY/WX    TMP DP  RH WIND       PRES   REMARKS
PONTIAC        SUNNY     73  54  49 E7        30.17R
DECATUR        MOSUNNY   73  59  61 NE9       30.16
PEORIA         SUNNY     77  52  41 NE14      30.16F
LACON*         SUNNY     73  53  48 NE8       30.17F
LINCOLN*       SUNNY     74  55  50 NE7       30.14S
SPRINGFIELD    SUNNY     76  54  46 NE13      30.15F
TAYLORVILLE    PTSUNNY   72  55  56 N9        30.15S
$$

ILZ033-039-045-046-055>057-062-063-241800-
EAST-CENTRAL ILLINOIS

CITY           SKY/WX    TMP DP  RH WIND       PRES   REMARKS
CHAMPAIGN      MOSUNNY   73  57  57 N12       30.15S
DANVILLE*      MOSUNNY   71  60  67 N8        30.11F
RANTOUL*       MOSUNNY   75  52  44 NE12      30.16R
MATTOON        MOSUNNY   72  58  61 NE8       30.12F
PARIS*         MOSUNNY   72  60  67 NE6       30.13F
$$

ILZ079-100>102-241800-
SOUTHWEST ILLINOIS

CITY           SKY/WX    TMP DP  RH WIND       PRES   REMARKS
ALTON          MOSUNNY   73  63  68 NE8       30.15S
BELLEVILLE     MOSUNNY   77  61  57 N7        30.13S
CAHOKIA*       SUNNY     78  55  44 NE13      30.13F
SPARTA*        MOSUNNY   72  61  68 N7        30.13S
$$

ILZ064>066-069>071-074>076-080>082-084>086-088>090-092>094-241800-
SOUTH-CENTRAL ILLINOIS

CITY           SKY/WX    TMP DP  RH WIND       PRES   REMARKS
CARBONDALE     PTSUNNY   74  62  66 VRB6      30.10F
CAIRO*         MOSUNNY   77  62  59 N12G17    30.08F
EFFINGHAM*     PTSUNNY   74  56  53 N7        30.13S
MARION         PTSUNNY   73  63  68 NE12      30.10F
MT. VERNON     MOSUNNY   75  61  60 NE9G17    30.11F
CENTRALIA*     MOSUNNY   79  58  48 N7        30.12S HX  80
SALEM*         MOSUNNY   76  62  61 NE5       30.12F
METROPOLIS*    MOSUNNY   75  59  57 N7        30.07F
$$

ILZ067-068-072-073-078-083-087-091-241800-
SOUTHEAST ILLINOIS

CITY           SKY/WX    TMP DP  RH WIND       PRES   REMARKS
LAWRENCEVILLE  PTSUNNY   74  60  61 NE9       30.10F
FLORA*         SUNNY     74  58  56 NE8       30.11S
FAIRFIELD*     SUNNY     75  64  69 NE8       30.10S
HARRISBURG*    MOSUNNY   72  64  76 N5        30.10S
ROBINSON*      MOSUNNY   77  61  57 N7        30.11F
CARMI*         SUNNY     77  63  61 NE10      30.08F
$$

ABBREVIATIONS USED IN REMARKS
   TC - TEMPERATURE IN CELSIUS
  WCI - WIND CHILL INDEX
   HX - HEAT INDEX
  VSB - VISIBILITY
$$




USA.gov is the U.S. government's official web portal to all federal, state and local government web resources and services.